Accueil
METAR-TAF:

METAR-TAF

Aéroports :

Aéroport de Canefield

Roseau, Dominique

latitude: 15-32N, longitude: 061-24W, altitude: 5 m

Observation

Le bulletin a été fait il y a 1 heure et 31 minutes, à 17:00 UTC
Vent 3 kt de ouest/nord-ouest
Température 29°C
Humidité 66%
Pression 1014 hPa
Visibilité 10 km ou plus
Quelques nuages à une hauteur de 1800 ft

METAR: TDCF 051700Z 29003KT 9999 FEW018 29/22 Q1014

Heure: 14:31 (18:31 UTC)


TAF: absent

Observations et prévisions météorologiques de plus de 4000 aéroports (messages METAR et TAF).

Les stations disponibles sont représentées par des disques jaunes et rouges sur la carte.

Passer la souris dessus pour voir le nom de la station.

Cliquer dessus pour voir les observations et prévisions météorologiques.

Pour changer de carte: cliquez sur les boutons verts avec une croix noire pour zoomer, sur le bouton vert avec un tiret pour effectuer un zoom arrière, ou sur les flèches vertes pour les cartes adjacentes.


METAR-TAF: